Weather in Andreyevsk

Russia / Irkutsk Oblast     58°08′01″N   114°19′06″E
temp.,
°C
wind,
m/s
gust,
m/s
humid.,
%
clouds,
%
prec.,
mm/h
press.,
hPa
HPBL,
m
23 april, fri
fri2323:00−16nw229172 0.0 104210
02:00−16wsw119440 0.0 10439
05:00−17sw1110095 0.0 104310
08:00−9sw4794100 0.3 1040296
11:00−4wsw81692100 0.5 10371350
14:00−2w111692100 1.8 10361330
17:00−2w91593100 0.9 10371275
20:00−4wnw7139271 1.3 1039488
24 april, sat
sat2423:00−5w389594 0.2 1040174
02:00−10w229979 0.2 104314
05:00−11w229990 0.1 104320
08:00−4w598698 0.1 1042831
11:00−2w4682100 0.1 1040937
14:00−1wsw238899 0.1 1038596
17:00−1w017925 0.1 1035423
20:00−7ne1190100 0.1 103610
25 april, sun
sun2523:00−9ne2293100 0.0 103411
02:00−9ne2295100 0.0 103110
05:00−9ene1197100 0.0 102810
08:00−3se1192100 0.0 1023132
11:00−2s2295100 0.2 1020286
14:00−1ssw2296100 0.3 1018370
17:00−1ssw2298100 0.5 1016228
20:00−2sw2299100 1.4 101635
26 april, mon
mon2623:00−4sw2299100 0.3 101636
02:00−3sw3499100 0.9 1014163
05:00−3ssw2399100 0.3 1012135
08:00−2wsw488891 0.8 1012781
11:00−1wsw488885 0.1 1010895
14:000w699080 0.3 1009894
17:00−1wnw7987100 0.3 1009768
20:00−5nw5118669 0.4 1013305
27 april, tue
tue2723:00−11nw33915 0.0 101830
02:00−10wnw389498 0.1 1019203
05:00−10wnw4991100 0.1 1020383
08:00−9wnw6784100 0.3 1022783
11:00−8wnw6774100 0.3 10221360
14:00−7nw6773100 0.4 10221393
17:00−7nw6771100 0.3 10231201
20:00−11nw1190100 0.4 102510